This is the latest recevied weather packets stored in our database for station/object HP1PAR-14. If no packets are shown the sender has not sent any weather packets the latest 10 day(s).
| Time | Temp. | Humidity | Pressure | Rain* | Wind** | Luminosity | Snow |
|---|---|---|---|---|---|---|---|
| 1788142130 | 68° F | 100% | 759.7 mmHg | 0 in | - | - | - |
| 1788141723 | 68° F | 100% | 759.7 mmHg | 0 in | - | - | - |
| 1788139923 | 68° F | 99% | 759.4 mmHg | 0 in | - | - | - |
| 1788138990 | 68° F | 99% | 759.2 mmHg | 0 in | - | - | - |
| 1788138652 | 69° F | 98% | 759 mmHg | 0 in | - | - | - |
| 1788138041 | 69° F | 98% | 759 mmHg | 0 in | - | - | - |
| 1788137232 | 69° F | 98% | 758.8 mmHg | 0 in | - | - | - |
| 1788136624 | 69° F | 98% | 758.6 mmHg | 0 in | - | - | - |
| 1788135750 | 69° F | 98% | 758.5 mmHg | 0 in | - | - | - |
| 1788135218 | 70° F | 92% | 758.3 mmHg | 0 in | - | - | - |
| 1788134801 | 70° F | 92% | 758.5 mmHg | 0 in | - | - | - |
| 1788134441 | 70° F | 92% | 758.5 mmHg | 0 in | - | - | - |
| 1788134134 | 70° F | 91% | 758.3 mmHg | 0 in | - | - | - |
| 1788133651 | 70° F | 91% | 758.3 mmHg | 0 in | - | - | - |
| 1788132848 | 70° F | 91% | 758.2 mmHg | 0 in | - | - | - |
| 1788131851 | 71° F | 90% | 758 mmHg | 0 in | - | - | - |
| 1788131739 | 71° F | 90% | 758 mmHg | 0 in | - | - | - |
| 1788129939 | 71° F | 88% | 757.6 mmHg | 0 in | - | - | - |
| 1788128138 | 72° F | 86% | 757.3 mmHg | 0 in | - | - | - |
| 1788126338 | 73° F | 83% | 757 mmHg | 0 in | - | - | - |
| 1788124537 | 74° F | 82% | 757 mmHg | 0 in | - | - | - |
| 1788122737 | 74° F | 82% | 757 mmHg | 0 in | - | - | - |
| 1788120936 | 74° F | 83% | 757.3 mmHg | 0 in | - | - | - |
| 1788119136 | 74° F | 82% | 757.4 mmHg | 0 in | - | - | - |
| 1788117335 | 75° F | 82% | 757.9 mmHg | 0 in | - | - | - |
* Rain latest hour (hover to see other rain measurements)
** Current wind speed in m/s (hover to see current wind gust speed)